Location: *
(47.7167°N, 1.7333°W)
Time: 00:29:20
(UTC+00:00)

Mayak - Pass Details

Date: 09 April 2020
Orbit: 581 x 600 km, 97.5° (Epoch: 04 June)

Event Time Altitude Azimuth Distance (km) Brightness Sun altitude
Rises 22:00:48 0° 18° (NNE) 2,823 ? -27.6°
Reaches altitude 10° 22:03:02 10° 24° (NNE) 1,915 ? -27.8°
Enters shadow 22:04:24 19° 33° (NNE) 1,399 ? -27.9°
